Skip Page Navigation
NASA JPL Caltech
NASA Logo - Jet Propulsion Laboratory + View the NASA Portal
+ Center for Near-Earth Object Studies
JPL Home Earth Solar System Stars & Galaxies Technology
JPL Solar System Dynamics
BODIES ORBITS EPHEMERIDES TOOLS PHYSICAL DATA DISCOVERY FAQ SITE MAP
JPL Small-Body Database Browser
Search: [ help ]  
1714 Sy (1951 OA)
Classification: Main-belt Asteroid          SPK-ID: 2001714
Ephemeris | Orbit Diagram | Orbital Elements | Mission Design | Physical Parameters | Discovery Circumstances | Close-Approach Data ]

[ hide orbit diagram ]

For accurate long-term ephemerides, please instead use our Horizons system.This orbit viewer was implemented using two-body methods, and hence should not be used for determining accurate long-term trajectories (over several years or decades) or planetary encounter circumstances.


[ revert to old Java-based viewer ]

Orbital Elements at Epoch 2459000.5 (2020-May-31.0) TDB
Reference: JPL 37 (heliocentric ecliptic J2000)
 Element Value Uncertainty (1-sigma)   Units 
e .1537968744941801 2.6665e-08  
a 2.567464052388051 7.8993e-09 au
q 2.172596105754607 6.9296e-08 au
i 7.972892925368068 3.9069e-06 deg
node 300.8928872257503 2.4426e-05 deg
peri 321.2779969763375 2.8607e-05 deg
M 289.3918106814311 1.6332e-05 deg
tp 2459295.218608591057
(2021-Mar-21.71860859)
6.8649e-05 TDB
period 1502.640134476272
4.11
6.9347e-06
1.899e-08
d
yr
n .2395783206772085 1.1057e-09 deg/d
Q 2.962331999021496 9.1142e-09 au
  Orbit Determination Parameters
   # obs. used (total)      2881  
   data-arc span      25734 days (70.46 yr)  
   first obs. used      1949-12-28  
   last obs. used      2020-06-12  
   planetary ephem.      DE431  
   SB-pert. ephem.      SB431-N16  
   condition code      0  
   norm. resid. RMS      .42861  
   source      ORB  
   producer      Otto Matic  
   solution date      2020-Jun-23 15:35:49  

Additional Information
 Earth MOID = 1.16336 au 
 Jupiter MOID = 2.16057 au 
 T_jup = 3.401 
[ hide covariance matrix ]
Orbital Elements at Epoch 2456848.5 (2014-Jul-10.0) TDB
Reference: JPL 37 (heliocentric ecliptic J2000)
 Element Value Uncertainty (1-sigma)   Units 
e .1551414968496976 2.6669e-08  
q 2.168339473970281 6.9378e-08 au
tp 2456288.789637274555
(2012-Dec-27.28963727)
6.4353e-05 TDB
node 300.9620914942831 2.4394e-05 deg
peri 321.0435815193673 2.8516e-05 deg
i 7.980312529481842 3.9093e-06 deg
  Orbit Determination Parameters
   # obs. used (total)      2881  
   data-arc span      25734 days (70.46 yr)  
   first obs. used      1949-12-28  
   last obs. used      2020-06-12  
   planetary ephem.      DE431  
   SB-pert. ephem.      SB431-N16  
   condition code      0  
   norm. resid. RMS      .42861  
   source      ORB  
   producer      Otto Matic  
   solution date      2020-Jun-23 15:35:49  

Additional Information
 Jupiter MOID = 2.16057 au 
 T_jup = 3.401 
Orbit Covariance (6×6)
  e q tp node peri i
e 7.112404309087939E-16 -1.841860024788381E-15 2.247580290822669E-13 3.373474202444246E-15 6.02692789402931E-14 1.540364362482336E-16
q -1.841860024788381E-15 4.813319534882057E-15 -5.093461543213023E-13 -9.587291376771565E-15 -1.361038016286038E-13 -2.149653039042488E-16
tp 2.247580290822669E-13 -5.093461543213023E-13 4.141278569331557E-9 4.232662046642832E-12 9.62546345319308E-10 1.293715415049698E-12
node 3.373474202444246E-15 -9.587291376771565E-15 4.232662046642832E-12 5.950727598392902E-10 -5.87970758565313E-10 3.227297507985363E-11
peri 6.02692789402931E-14 -1.361038016286038E-13 9.62546345319308E-10 -5.87970758565313E-10 8.131497736445064E-10 -3.165142661785485E-11
i 1.540364362482336E-16 -2.149653039042488E-16 1.293715415049698E-12 3.227297507985363E-11 -3.165142661785485E-11 1.528275404607922E-11

Ephemeris | Orbit Diagram | Orbital Elements | Mission Design | Physical Parameters | Discovery Circumstances | Close-Approach Data ]

Physical Parameter Table
Parameter Symbol Value Units Sigma Reference Notes
absolute magnitude H 11.9   n/a MPO296142  
diameter diameter 13.998 km 0.881 urn:nasa:pds:neowise_diameters_albedos::2.0[mainbelt] (http://adsabs.harvard.edu/abs/2012ApJ...759L...8M)  
geometric albedo albedo 0.157   0.034 urn:nasa:pds:neowise_diameters_albedos::2.0[mainbelt] (http://adsabs.harvard.edu/abs/2012ApJ...759L...8M)  

1714 Sy (1951 OA)          Discovered 1951-Jul-25 by Boyer, L. at Algiers
Reference: DISCOVERY.DBLast Updated: 2003-08-29

[ show close-approach data ]
Alternate Designations
 1951 OA = 1949 YM = 1950 DE1 = 1951 NM 
Ephemeris | Orbit Diagram | Orbital Elements | Mission Design | Physical Parameters | Discovery Circumstances | Close-Approach Data ]
ABOUT SSD CREDITS/AWARDS PRIVACY/COPYRIGHT GLOSSARY LINKS
FirstGov 2020-Sep-29 15:18 UT
(server date/time)  
NASA Home Page
Site Manager:   Ryan S. Park
Webmaster  Alan B. Chamberlin